| time (UTC) | temp F | wind direction | speed knots | gust knots | rain 1hr in | rain 24hr in | rain mn in | humidity % | barometer mb |
| 20260901221803 | 60 | 170 | 0.9 | 1.7 | 0.00 | 1.96 | 0.00 | 81 | 1015.7 |
| 20260901220903 | 60 | 120 | 0.9 | 1.7 | 0.00 | 1.96 | 0.00 | 80 | 1015.7 |
| 20260901220003 | 60 | 90 | 0.9 | 1.7 | 0.00 | 1.96 | 0.00 | 80 | 1015.8 |
| 20260901215403 | 61 | 85 | 0.0 | 0.9 | 0.00 | 1.96 | 0.00 | 80 | 1016.1 |
| 20260901214503 | 61 | 90 | 0.0 | 0.9 | 0.00 | 1.96 | 0.00 | 79 | 1016.1 |
| 20260901213603 | 61 | 135 | 0.0 | 0.9 | 0.00 | 1.96 | 0.00 | 78 | 1015.9 |
| 20260901212703 | 61 | 133 | 0.0 | 0.9 | 0.00 | 1.96 | 0.00 | 78 | 1016.0 |
| 20260901211803 | 61 | 121 | 1.7 | 3.5 | 0.00 | 1.96 | 0.00 | 77 | 1015.9 |
| 20260901210903 | 62 | 295 | 1.7 | 2.6 | 0.00 | 1.96 | 0.00 | 77 | 1016.1 |
| 20260901210003 | 62 | 195 | 0.9 | 1.7 | 0.00 | 1.96 | 0.00 | 77 | 1016.2 |
| 20260901205616 | 62 | 176 | 0.9 | 2.6 | 0.00 | 1.96 | 0.00 | 77 | 1016.2 |
| 20260901204503 | 62 | 219 | 1.7 | 1.7 | 0.00 | 1.96 | 0.00 | 76 | 1015.8 |
| 20260901203817 | 62 | 195 | 1.7 | 3.5 | 0.00 | 1.96 | 0.00 | 76 | 1016.1 |
| 20260901202916 | 62 | 205 | 1.7 | 2.6 | 0.00 | 1.96 | 0.00 | 76 | 1016.2 |
| 20260901201803 | 62 | 168 | 2.6 | 3.5 | 0.00 | 1.96 | 0.00 | 77 | 1016.0 |
| 20260901200903 | 62 | 185 | 1.7 | 2.6 | 0.00 | 1.96 | 0.00 | 76 | 1016.2 |
| 20260901200003 | 62 | 180 | 1.7 | 3.5 | 0.00 | 1.96 | 0.00 | 76 | 1015.9 |
| 20260901195403 | 63 | 169 | 1.7 | 3.5 | 0.00 | 1.96 | 0.00 | 76 | 1016.0 |
| 20260901194503 | 63 | 255 | 2.6 | 5.2 | 0.00 | 1.96 | 0.00 | 76 | 1016.1 |
| 20260901193817 | 63 | 154 | 1.7 | 5.2 | 0.00 | 1.96 | 0.00 | 76 | 1015.9 |
| 20260901192918 | 63 | 206 | 1.7 | 3.5 | 0.00 | 1.96 | 0.00 | 75 | 1016.1 |
| 20260901191803 | 63 | 179 | 1.7 | 2.6 | 0.00 | 1.96 | 0.00 | 74 | 1015.8 |
| 20260901190903 | 63 | 191 | 1.7 | 3.5 | 0.00 | 1.96 | 0.00 | 74 | 1016.1 |
| 20260901190218 | 63 | 192 | 1.7 | 3.5 | 0.00 | 1.96 | 0.00 | 73 | 1015.9 |
| 20260901185403 | 63 | 172 | 2.6 | 3.5 | 0.00 | 1.96 | 0.00 | 73 | 1015.9 |
| 20260901184717 | 64 | 161 | 2.6 | 3.5 | 0.00 | 1.96 | 0.00 | 70 | 1015.7 |
| 20260901183603 | 64 | 232 | 2.6 | 4.3 | 0.00 | 1.96 | 0.00 | 67 | 1015.7 |
| 20260901182918 | 64 | 218 | 2.6 | 4.3 | 0.00 | 1.96 | 0.00 | 66 | 1015.9 |
| 20260901181803 | 65 | 148 | 1.7 | 3.5 | 0.00 | 1.96 | 0.00 | 65 | 1016.0 |
| 20260901180903 | 65 | 142 | 2.6 | 3.5 | 0.00 | 1.96 | 0.00 | 64 | 1015.7 |
| 20260901180003 | 65 | 106 | 1.7 | 3.5 | 0.00 | 1.96 | 0.00 | 64 | 1015.9 |
| 20260901175403 | 65 | 156 | 2.6 | 3.5 | 0.00 | 1.96 | 0.00 | 63 | 1015.9 |
| 20260901174503 | 65 | 319 | 3.5 | 3.5 | 0.00 | 1.96 | 0.00 | 63 | 1015.8 |
| 20260901173603 | 65 | 275 | 3.5 | 6.1 | 0.00 | 1.96 | 0.00 | 63 | 1015.8 |
| 20260901172703 | 65 | 241 | 3.5 | 4.3 | 0.00 | 1.96 | 0.00 | 63 | 1016.0 |
| 20260901171803 | 65 | 186 | 3.5 | 5.2 | 0.00 | 1.96 | 0.00 | 62 | 1015.8 |
| 20260901171118 | 65 | 203 | 4.3 | 5.2 | 0.00 | 1.96 | 0.00 | 62 | 1015.9 |
| 20260901170003 | 66 | 311 | 4.3 | 7.0 | 0.00 | 1.96 | 0.00 | 62 | 1015.7 |
| 20260901165403 | 67 | 149 | 5.2 | 7.0 | 0.00 | 1.96 | 0.00 | 61 | 1015.5 |
| 20260901164716 | 67 | 343 | 5.2 | 7.0 | 0.00 | 1.96 | 0.00 | 60 | 1015.5 |
| 20260901163603 | 67 | 149 | 1.7 | 3.5 | 0.00 | 1.96 | 0.00 | 65 | 1015.4 |
| 20260901162703 | 67 | 169 | 3.5 | 6.1 | 0.00 | 1.96 | 0.00 | 69 | 1015.6 |
| 20260901161803 | 67 | 176 | 4.3 | 7.0 | 0.00 | 1.96 | 0.00 | 69 | 1015.7 |
| 20260901160903 | 67 | 194 | 3.5 | 5.2 | 0.00 | 1.96 | 0.00 | 69 | 1015.6 |
| 20260901160003 | 67 | 173 | 3.5 | 3.5 | 0.00 | 1.96 | 0.00 | 70 | 1015.7 |
| 20260901155403 | 66 | 186 | 3.5 | 7.0 | 0.00 | 1.96 | 0.00 | 70 | 1016.0 |
| 20260901154503 | 66 | 193 | 3.5 | 7.0 | 0.00 | 1.96 | 0.00 | 70 | 1016.0 |
| 20260901153603 | 66 | 166 | 5.2 | 8.7 | 0.00 | 1.96 | 0.00 | 68 | 1015.9 |
| 20260901152917 | 67 | 265 | 4.3 | 6.1 | 0.00 | 1.96 | 0.00 | 66 | 1016.0 |
| 20260901151803 | 67 | 196 | 6.1 | 9.6 | 0.00 | 1.96 | 0.00 | 62 | 1015.8 |
| 20260901150903 | 68 | 183 | 5.2 | 7.8 | 0.00 | 1.96 | 0.00 | 61 | 1015.7 |
| 20260901150217 | 69 | 191 | 4.3 | 6.1 | 0.00 | 1.96 | 0.00 | 60 | 1015.9 |
| 20260901145403 | 68 | 161 | 4.3 | 6.1 | 0.00 | 1.96 | 0.00 | 62 | 1015.6 |
| 20260901144503 | 68 | 173 | 4.3 | 7.8 | 0.00 | 1.96 | 0.00 | 63 | 1015.8 |
| 20260901143603 | 68 | 181 | 6.1 | 9.6 | 0.00 | 1.96 | 0.00 | 63 | 1016.0 |
| 20260901142703 | 68 | 183 | 6.1 | 11.3 | 0.00 | 1.96 | 0.00 | 62 | 1016.1 |
| 20260901141803 | 68 | 187 | 6.1 | 10.4 | 0.00 | 1.96 | 0.00 | 63 | 1016.1 |
| 20260901141117 | 68 | 202 | 6.1 | 7.0 | 0.00 | 1.96 | 0.00 | 62 | 1016.2 |
| 20260901140003 | 67 | 193 | 4.3 | 7.0 | 0.00 | 1.96 | 0.00 | 63 | 1015.9 |
| 20260901135403 | 67 | 199 | 5.2 | 7.8 | 0.00 | 1.96 | 0.00 | 64 | 1016.2 |
| 20260901134503 | 66 | 217 | 4.3 | 7.8 | 0.00 | 1.96 | 0.00 | 62 | 1016.5 |
| 20260901133603 | 66 | 182 | 5.2 | 9.6 | 0.00 | 1.96 | 0.00 | 62 | 1016.0 |
| 20260901132703 | 67 | 221 | 6.1 | 9.6 | 0.00 | 1.96 | 0.00 | 61 | 1016.3 |
| 20260901131803 | 69 | 163 | 4.3 | 6.1 | 0.00 | 1.96 | 0.00 | 59 | 1015.9 |
| 20260901130903 | 70 | 189 | 6.1 | 9.6 | 0.00 | 1.96 | 0.00 | 60 | 1016.1 |
| 20260901130003 | 68 | 182 | 6.1 | 9.6 | 0.00 | 1.96 | 0.00 | 61 | 1015.9 |
| 20260901125403 | 68 | 191 | 5.2 | 8.7 | 0.00 | 1.96 | 0.00 | 61 | 1016.0 |
| 20260901124504 | 68 | 181 | 5.2 | 7.8 | 0.00 | 1.96 | 0.00 | 60 | 1016.2 |
| 20260901123603 | 68 | 197 | 5.2 | 8.7 | 0.00 | 1.96 | 0.00 | 61 | 1016.4 |
| 20260901122703 | 68 | 186 | 4.3 | 8.7 | 0.00 | 1.96 | 0.00 | 60 | 1016.3 |
| 20260901121803 | 69 | 189 | 4.3 | 7.0 | 0.00 | 1.96 | 0.00 | 55 | 1016.1 |
| 20260901120903 | 71 | 23 | 2.6 | 3.5 | 0.00 | 1.96 | 0.00 | 52 | 1016.2 |
| 20260901120003 | 69 | 306 | 3.5 | 4.3 | 0.98 | 1.96 | 0.00 | 52 | 1016.3 |
| 20260901115403 | 70 | 226 | 3.5 | 5.2 | 1.96 | 1.96 | 0.00 | 51 | 1016.2 |
| 20260901114503 | 72 | 249 | 4.3 | 6.1 | 1.96 | 1.96 | 0.00 | 48 | 1016.3 |
| 20260901113603 | 72 | 246 | 3.5 | 4.3 | 1.96 | 1.96 | 0.00 | 48 | 1016.2 |
| 20260901112703 | 72 | 218 | 4.3 | 6.1 | 1.96 | 1.96 | 0.00 | 50 | 1016.3 |
| 20260901112016 | 71 | 305 | 4.3 | 6.1 | 1.96 | 1.96 | 0.00 | 50 | 1016.3 |
| 20260901110903 | 71 | 329 | 4.3 | 6.1 | 1.96 | 1.96 | 0.00 | 51 | 1016.3 |
| 20260901110217 | 70 | 331 | 2.6 | 6.1 | 1.96 | 1.96 | 0.00 | 52 | 1016.3 |
| 20260901105403 | 70 | 327 | 5.2 | 7.8 | 0.00 | 0.00 | 0.00 | 53 | 1016.4 |
| 20260901104503 | 70 | 254 | 3.5 | 5.2 | 0.00 | 0.00 | 0.00 | 56 | 1016.6 |
| 20260901103603 | 69 | 103 | 4.3 | 6.1 | 0.00 | 0.00 | 0.00 | 56 | 1016.4 |
| 20260901102703 | 69 | 215 | 3.5 | 6.1 | 0.00 | 0.00 | 0.00 | 57 | 1016.7 |
| 20260901101803 | 70 | 223 | 3.5 | 7.8 | 0.00 | 0.00 | 0.00 | 56 | 1016.6 |
| 20260901100903 | 71 | 145 | 3.5 | 8.7 | 0.00 | 0.00 | 0.00 | 60 | 1016.6 |
| 20260901100003 | 69 | 285 | 2.6 | 3.5 | 0.00 | 0.00 | 0.00 | 61 | 1016.7 |
| 20260901095403 | 69 | 304 | 3.5 | 6.1 | 0.00 | 0.00 | 0.00 | 62 | 1016.7 |
| 20260901094503 | 67 | 204 | 4.3 | 7.0 | 0.00 | 0.00 | 0.00 | 63 | 1016.8 |
| 20260901093603 | 67 | 173 | 3.5 | 6.1 | 0.00 | 0.00 | 0.00 | 66 | 1017.1 |
| 20260901092703 | 66 | 158 | 3.5 | 3.5 | 0.00 | 0.00 | 0.00 | 68 | 1016.7 |
| 20260901091803 | 64 | 163 | 4.3 | 7.0 | 0.00 | 0.00 | 0.00 | 71 | 1016.9 |
| 20260901090903 | 63 | 174 | 4.3 | 5.2 | 0.00 | 0.00 | 0.00 | 75 | 1016.8 |
| 20260901090003 | 62 | 145 | 2.6 | 4.3 | 0.00 | 0.00 | 0.00 | 79 | 1017.0 |
| 20260901085403 | 62 | 96 | 2.6 | 3.5 | 0.00 | 0.00 | 0.00 | 80 | 1017.0 |
| 20260901084503 | 61 | 95 | 1.7 | 3.5 | 0.00 | 0.00 | 0.00 | 81 | 1016.8 |
| 20260901083603 | 60 | 96 | 2.6 | 2.6 | 0.00 | 0.00 | 0.00 | 81 | 1016.9 |
| 20260901082703 | 60 | 105 | 1.7 | 2.6 | 0.00 | 0.00 | 0.00 | 81 | 1017.0 |
| 20260901082017 | 60 | 128 | 1.7 | 3.5 | 0.00 | 0.00 | 0.00 | 82 | 1016.8 |
| 20260901080903 | 59 | 109 | 0.9 | 1.7 | 0.00 | 0.00 | 0.00 | 84 | 1016.9 |
| 20260901080003 | 58 | 188 | 2.6 | 3.5 | 0.00 | 0.00 | 0.00 | 83 | 1016.4 |
| 20260901075403 | 58 | 178 | 2.6 | 4.3 | 0.00 | 0.00 | 0.00 | 84 | 1016.8 |
| 20260901074503 | 57 | 175 | 0.9 | 1.7 | 0.00 | 0.00 | 0.00 | 85 | 1016.4 |
| 20260901073603 | 57 | 118 | 1.7 | 2.6 | 0.00 | 0.00 | 0.00 | 86 | 1016.6 |
| 20260901072703 | 56 | 94 | 1.7 | 2.6 | 0.00 | 0.00 | 0.00 | 87 | 1016.7 |
| 20260901071803 | 56 | 125 | 1.7 | 2.6 | 0.00 | 0.00 | 0.00 | 88 | 1016.5 |
| 20260901070903 | 56 | 128 | 1.7 | 2.6 | 0.00 | 0.00 | 0.00 | 89 | 1016.4 |
| 20260901070003 | 55 | 106 | 1.7 | 2.6 | 0.00 | 0.00 | 0.00 | 90 | 1016.4 |
| 20260901065403 | 55 | 89 | 1.7 | 2.6 | 0.00 | 0.00 | 0.00 | 90 | 1016.3 |
| 20260901064503 | 54 | 143 | 1.7 | 2.6 | 0.00 | 0.00 | 0.00 | 93 | 1016.4 |
| 20260901063818 | 54 | 166 | 2.6 | 3.5 | 0.00 | 0.00 | 0.00 | 94 | 1016.5 |
| 20260901062703 | 54 | 168 | 2.6 | 3.5 | 0.00 | 0.00 | 0.00 | 95 | 1016.3 |
| 20260901062017 | 54 | 169 | 1.7 | 3.5 | 0.00 | 0.00 | 0.00 | 95 | 1016.1 |
| 20260901061118 | 53 | 160 | 0.0 | 0.9 | 0.00 | 0.00 | 0.00 | 95 | 1016.4 |
| 20260901060004 | 52 | 360 | 0.9 | 2.6 | 0.00 | 0.00 | 0.00 | 94 | 1015.9 |